Flag for Pakistan Weather past 2 weeks in Islamabad, Pakistan

Now
77 °F

Fog.


Feels Like: 78 °F
Forecast: 69 / 92 °F
Wind: 7 mph from Northeast

Location: Islamabad Airport

Current Time: Oct 1, 2014 at 10:48:30 PM

Latest Report: Oct 1, 2014 at 10:00 PM


Visibility: 2 mi

Pressure: 29.98 "Hg

Humidity: 83%

Dew point: 72 °F

Location of IslamabadLocation

Historic Weather in Islamabad — Graph

°F

Islamabad temperature yesterday

Maximum temperature yesterday: 90 °F (at 2:00 PM)
Minimum temperature yesterday: 75 °F (at 4:00 AM)
Average temperature yesterday: 82 °F

Past Weeks' High & Low Weather Summary

 TemperatureHumidityPressure
High95 °F (Sep 18, 2:00 PM)100% (Sep 21, 3:00 AM)30.01 "Hg (Sep 21, 3:00 AM)
Low64 °F (Sep 21, 3:00 AM)38% (Sep 25, 2:00 PM)29.65 "Hg (Sep 17, 3:00 AM)
Average82 °F68%29.81 "Hg
* Reported Sep 16 10:00 PM — Oct 1 10:00 PM, Islamabad, Weather by CustomWeather, © 2014

Note: Actual official high and low records may vary slightly from our data, if they occured in-between our weather recording intervals... More about our weather records

Advertising

Islamabad weather history for previous 24 hours

 ConditionsComfort  
Time TempWeatherWind HumidityBarometerVisibility
10:00 PM
Oct 1
77 °FFog.7 mph83%29.98 "Hg2 mi
9:00 PM79 °FPassing clouds.7 mph79%29.95 "Hg2 mi
8:00 PM81 °FPassing clouds.7 mph74%29.95 "Hg2 mi
7:00 PM82 °FPassing clouds.9 mph70%29.92 "Hg2 mi
6:00 PM84 °FPassing clouds.9 mph70%29.92 "Hg2 mi
5:00 PM84 °FHaze.9 mph70%29.89 "Hg2 mi
3:00 PM88 °FScattered clouds.12 mph62%29.92 "Hg2 mi
2:00 PM86 °FScattered clouds.12 mph66%29.95 "Hg2 mi
1:00 PM84 °FScattered clouds.12 mph70%29.98 "Hg2 mi
12:00 PM81 °FScattered clouds.12 mph79%30.01 "Hg2 mi
11:00 AM81 °FFog.16 mph79%30.01 "Hg2 mi
10:00 AM77 °FBroken clouds.7 mph83%30.01 "Hg2 mi
9:00 AM77 °FThunderstorms. Broken clouds.7 mph83%30.01 "Hg2 mi
8:00 AM77 °FFog.7 mph79%29.98 "Hg2 mi
5:00 AM77 °FThundershowers. Partly cloudy.7 mph79%29.95 "Hg2 mi
4:00 AM77 °FThunderstorms. Partly cloudy.7 mph79%29.92 "Hg2 mi
3:00 AM77 °FPartly cloudy.7 mph74%29.92 "Hg2 mi
2:00 AM77 °FPassing clouds.5 mph74%29.92 "Hg2 mi
1:00 AM77 °FPassing clouds.5 mph79%29.95 "Hg2 mi
12:00 AM79 °FPassing clouds.9 mph74%29.95 "Hg2 mi
11:00 PM
Sep 30
81 °FPassing clouds.7 mph74%29.95 "Hg2 mi
10:00 PM81 °FHaze.7 mph74%29.95 "Hg2 mi
Weather by CustomWeather, © 2014

See weather overviewHow to use our weather pages